Вернуться в каталог

FENGYUN 1C DEB

АктивенSSO
NORAD 30809·DEBRIS·🇨🇳 China

Запущен May 10, 1999 с Taiyuan Satellite Launch Center

Loading…

Ближайшие Пролёты (ближайшие 24 часа)

TLE

СвежийSource: Space-Track

Эпоха: Sep 14, 2026, 17:06 UTC

1 30809U 99025AUT 26257.71293937  .00002306  00000-0  87761-3 0  9991
2 30809  98.7860 354.4383 0050559  86.9588 273.7379 14.31187252 10270

Отслеживайте FENGYUN 1C DEB в реальном времени с AllMySat

Download on the App Store